sat.trackr.live / text

‹ back to catalog

STARLINK-32228

NORAD 60445 · 2024-144W

PAYLOAD ACTIVE UNKNOWN

§ Identity

Operator
Country
US
Launch date
2024-08-12
Launch site
AFETR
Launch vehicle
Mass (kg)
RCS (m²)

Purposes: comms

External: N2YO · Heavens-Above · Gunter

§ Orbital elements

Epoch: 2026-09-21T14:45:11.584224Z

Period
93.85 min
Inclination
53.1613°
Eccentricity
0.0000788
Mean motion
15.34370976 rev/d
Perigee alt
462.3 km
Apogee alt
463.3 km
Semi-major
6,840.9 km
B*
-8.1284e-5
RAAN
22.2922°
Arg perigee
82.1834°
Mean anomaly
277.9258°
Rev number
11,941

§ Raw data

STARLINK-322281 60445U 24144W   26264.61471741 -.00003118  00000+0 -81284-4 0  99962 60445  53.1613  22.2922 0000788  82.1834 277.9258 15.34370976119419

JSON: /api/v1/satellites/60445 · /tle

For live sub-satellite position, see the globe view (requires WebGL).

§ Visibility from observer

Set your observer location to see the next 7 days of passes ≥ 10°. The values pass through the URL so the page stays shareable.

No JS? Fill the form by hand. The geolocation button needs JavaScript.